Filter
Ticker Owner Relationship Date Transaction Cost #Shares Value ($) #Shares Total SEC Form 4
NSPRWard Scott R.DirectorMay 07 '26Buy1.1573,25584,243237,096May 08 05:08 PM
NSPRWard Scott R.DirectorMay 06 '26Buy1.1515,99518,394163,841May 08 05:08 PM
NSPRStuka PaulDirectorMay 07 '26Buy1.156,3787,335531,599May 08 05:05 PM
NSPRStuka PaulDirectorMay 06 '26Buy1.121,5171,699525,221May 08 05:05 PM
NSPRROUBIN GARY SDirectorMay 07 '26Buy1.1890,000106,200834,478May 08 05:03 PM
ACONWesemann WilliamDirectorMay 06 '26Buy3.301,5625,1551,563May 08 05:00 PM
OFIXHENNEMAN JOHN B IIIDirectorMay 07 '26Buy12.265,00061,29590,809May 08 04:52 PM
AGBKDe Farias Daniel MonteiroChief Products OfficerMay 07 '26Buy7.226935,000693May 08 04:48 PM
PAMMariani GustavoVice PresidentMay 08 '26Buy81.0225,0002,025,5001,591,184May 08 04:33 PM
PAMMariani GustavoVice PresidentMay 07 '26Buy81.4025,0002,035,0001,566,184May 08 04:33 PM
MKLLeopold DianeDirectorMay 07 '26Buy1789.195089,460550May 08 04:31 PM
MKLLeopold DianeDirectorMay 06 '26Buy1792.61100179,2612,190May 08 04:31 PM
XZOPatel PareshChief Executive OfficerMay 07 '26Buy15.112,00030,2201,646,013May 08 04:14 PM
NXGMusgrave John M.CEO & PresidentMay 07 '26Buy58.451347,832542May 08 04:09 PM
COEHuang Jack JiajiaChief Executive OfficerMay 05 '26Buy28.0611,580324,93526,109,600May 08 04:08 PM
COEHuang Jack JiajiaChief Executive OfficerMay 04 '26Buy28.7983,5802,406,26826,098,020May 08 04:08 PM
COEHuang Jack JiajiaChief Executive OfficerMay 01 '26Buy29.0552,5601,526,86826,014,440May 08 04:08 PM
COEHuang Jack JiajiaChief Executive OfficerApr 30 '26Buy28.3624,180685,74525,961,880May 08 04:08 PM
COEHuang Jack JiajiaChief Executive OfficerApr 29 '26Buy27.879,300259,19125,937,700May 08 04:08 PM
COEHuang Jack JiajiaChief Executive OfficerApr 28 '26Buy26.9964,5001,740,85525,928,400May 08 04:08 PM
COEHuang Jack JiajiaChief Executive OfficerApr 27 '26Buy26.30161,2804,241,66425,863,900May 08 04:08 PM
COEHuang Jack JiajiaChief Executive OfficerApr 24 '26Buy26.0739,7201,035,50025,702,620May 08 04:08 PM
SITELaughlin Daniel T.SVP, Strategy & DevelopmentMay 06 '26Buy123.602,000247,2002,000May 08 04:05 PM
SOFINoto AnthonyChief Executive OfficerMay 08 '26Buy15.7315,878249,76911,931,074May 08 04:02 PM
TPLHORIZON KINETICS ASSET MANAGEM10% OwnerMay 07 '26Buy401.3214013,395,607May 08 03:59 PM
YORWScarpato Matthew JChief Operating OfficerMay 08 '26Buy29.3070020,5102,570May 08 03:29 PM
BOTJJAMERSON PHILLIP CDirectorMay 07 '26Buy23.401,00023,39718,190May 08 03:12 PM
WSBCLove Scott AEVP - Wealth ManagementMay 08 '26Buy34.0840013,63226,803May 08 03:11 PM
RVSBSherman NicolePresident/CEOMay 07 '26Buy5.491,8009,876164,717May 08 01:06 PM
ASGMILAS ROBERTAccess Person of the FundMay 08 '26Buy5.251,9009,9846,826May 08 12:58 PM
USAMILAS ROBERTAccess Person of the FundMay 08 '26Buy5.821,7009,8945,759May 08 12:55 PM
NXGSunderland ToddCOOMay 07 '26Buy58.45271,5781,139May 08 12:06 PM
NXGSunderland ToddCOOMay 07 '26Buy58.4580246,8773,211May 08 12:06 PM
POOLPEREZ DE LA MESA MANUEL JDirectorMay 07 '26Buy190.0010,0001,900,00030,108May 08 11:57 AM
POOLSTOKELY JOHN EDirectorMay 07 '26Buy193.061,000193,06516,230May 08 11:55 AM
POOLHope James DDirectorMay 07 '26Buy194.4146490,2093,678May 08 11:53 AM
WSBKSnow John Ingalls IIIDirectorMay 07 '26Buy12.791,72522,05919,735May 08 10:06 AM
NEWTSALUTE RICHARD JDirectorMay 07 '26Buy13.471,00013,47045,772May 08 09:36 AM
UPSTGirouard DaveDirectorMay 07 '26Buy29.37170,2404,999,6078,512,941May 08 08:54 AM
NMMFrangou AngelikiSee RemarksMay 07 '26Buy72.491,13582,2804,717,056May 07 09:10 PM
NMMFrangou AngelikiSee RemarksMay 06 '26Buy74.771,08681,2044,715,921May 07 09:10 PM
NMMFrangou AngelikiSee RemarksMay 05 '26Buy74.551,17187,2924,714,835May 07 09:10 PM
BETRGarg VishalChief Executive OfficerMay 07 '26Buy30.006,583197,48571,460May 07 08:52 PM
OFIXEngine Capital Management, LP10% OwnerMay 07 '26Buy12.1830,000365,4253,848,573May 07 06:15 PM
OFIXEngine Capital Management, LP10% OwnerMay 06 '26Buy12.2341,946512,9163,821,285May 07 06:15 PM
OFIXEngine Capital Management, LP10% OwnerMay 05 '26Buy11.99112,9501,354,5873,783,131May 07 06:15 PM
NWNPalfreyman JustinPresident & CEOMay 07 '26Buy48.751,22559,71922,165May 07 06:12 PM
AUBNHedges David APresident\CEOMay 06 '26Buy23.751,00023,75014,401May 07 05:38 PM
TPLHORIZON KINETICS ASSET MANAGEM10% OwnerMay 06 '26Buy419.0214193,395,606May 07 05:05 PM
OPCHSULLIVAN TIMOTHY PDirectorMay 07 '26Buy20.6924,154499,67173,383May 07 05:04 PM
PSXMeyers Kevin OmarDirectorMay 06 '26Buy173.1217530,29716,799May 07 05:02 PM
FTCIALVAREZ ANTONIO RDirectorMay 06 '26Buy3.982,5009,95048,783May 07 05:00 PM
GOLDTether Global Investments Fund10% OwnerMay 05 '26Buy44.50530,33823,600,0413,370,787May 07 04:58 PM
EXETeunissen MarcelEVP & CFOMay 07 '26Buy96.432,000192,8609,144May 07 04:46 PM
AMRZClark Stephen SChief People OfficerMay 05 '26Buy52.7521145,260May 07 04:35 PM
RVSBHoff LarryDirectorMay 05 '26Buy5.211,92010,01314,020May 07 04:32 PM
AREMARCUS JOEL SExecutive ChairmanMay 06 '26Buy46.347,500347,558587,724May 07 04:32 PM
XZOPatel PareshChief Executive OfficerMay 06 '26Buy17.312,00034,6271,644,013May 07 04:15 PM
GEHCCULP H LAWRENCE JRDirectorMay 06 '26Buy61.8880,8055,000,076151,207May 07 04:14 PM
MMSIAronson Martha GoldbergPresident and CEOMay 06 '26Buy60.442,000120,88049,792May 07 04:12 PM
AIMDchiang yao-chungDirectorMay 05 '26Buy1.70129219829May 07 04:10 PM
SRADKoerl CarstenChief Executive OfficerMay 06 '26Buy13.49157,8012,128,7352,776,073May 07 04:10 PM
MMSIParra Raul Jr.CFO AND TREASURERMay 06 '26Buy61.011,50091,51558,843May 07 04:09 PM
GEHCStromberg William JDirectorMay 06 '26Buy61.691,00061,68915,330May 07 04:09 PM
MMSIVoigt Michel J.CHIEF HUMAN RESOURCES OFFICERMay 05 '26Buy60.652,250136,4622,265May 07 04:07 PM
CBANCanup Edward GCHIEF BANKING OFFICERMay 05 '26Buy19.651,00019,65030,969May 07 04:07 PM
BCMLBlack William JExecutive Vice ChairMay 06 '26Buy30.2226,549802,31133,082May 07 04:05 PM
BCMLBlack William JExecutive Vice ChairMay 05 '26Buy29.996,533195,9256,533May 07 04:05 PM
AWRESTAFFORD JOHN S IIIDirectorMay 05 '26Buy1.253,8684,8355,141,542May 07 04:05 PM
AWRESTAFFORD JOHN S IIIDirectorMay 04 '26Buy1.2515,72019,6505,137,674May 07 04:05 PM
AWREAmlani Ajay KPresident & CEOMay 05 '26Buy1.3015,00019,500882,894May 07 04:00 PM
BOTJADDISON LEWIS CDirectorMay 07 '26Buy23.18821,90019,721May 07 03:57 PM
BOTJBRYANT WILLIAM C IIIDirectorMay 06 '26Buy23.111,04324,10477,716May 07 03:48 PM
IVRGregson Mark WilliamChief Financial OfficerMay 05 '26Buy8.031,75014,0441,750May 07 03:11 PM
GFSaba Capital Management, L.P.10% OwnerMay 05 '26Buy11.734,81256,4453,056,696May 07 02:49 PM
ANGXSarowitz Steven IDirectorMay 05 '26Buy3.06321,544982,574326,840May 07 02:25 PM
JHSHurtsellers ChristineDirectorMay 06 '26Buy11.201,07112,0001,071May 07 12:47 PM
HPFHurtsellers ChristineDirectorMay 06 '26Buy16.1374412,000744May 07 12:43 PM
HEQHurtsellers ChristineDirectorMay 06 '26Buy11.571,03712,0001,037May 07 12:36 PM
HPIHurtsellers ChristineDirectorMay 06 '26Buy16.2573812,000738May 07 12:30 PM
BTOHurtsellers ChristineDirectorMay 06 '26Buy37.3832112,000321May 07 12:25 PM
HPSHurtsellers ChristineDirectorMay 06 '26Buy14.8380912,000809May 07 12:19 PM
JHIHurtsellers ChristineDirectorMay 06 '26Buy13.3674910,000749May 07 12:13 PM
HTDHurtsellers ChristineDirectorMay 06 '26Buy25.6646812,000468May 07 12:09 PM
PDTHurtsellers ChristineDirectorMay 06 '26Buy13.1491312,000913May 07 12:03 PM
OGNHolzbaur LynetteSVP and Corporate ControllerMay 06 '26Buy13.3526,448353,08052,851May 07 10:02 AM
CAREWalsh Elizabeth L.DirectorMay 06 '26Buy26.204,575119,86558,753May 07 09:24 AM
FTCICarroll AnthonyChief Executive OfficerMay 06 '26Buy3.437,25024,868641,455May 07 09:13 AM
FTCISADASIVAM SHAKERDirectorMay 06 '26Buy3.7027,02599,99281,508May 07 09:10 AM
GLNDSWETS LARRY G JRDirectorMay 06 '26Buy2.7925,00069,750500,000May 07 08:30 AM
DGICADONEGAL MUTUAL INSURANCE CO10% OwnerMay 06 '26Buy16.658,500141,56613,954,704May 07 08:26 AM
DGICADONEGAL MUTUAL INSURANCE CO10% OwnerMay 05 '26Buy16.508,500140,29013,946,204May 07 08:26 AM
RLYBADAR1 Capital Management, LLC10% OwnerMay 05 '26Buy14.0035,101491,260779,784May 06 09:32 PM
RLYBADAR1 Capital Management, LLC10% OwnerMay 04 '26Buy13.97120,8041,687,409744,683May 06 09:32 PM
TLXBehrenbruch ChristianMD & Group CEOApr 29 '26Buy14.8733,435497,17820,742,935May 06 09:32 PM
TLXBehrenbruch ChristianMD & Group CEOApr 28 '26Buy14.4834,500499,56020,709,500May 06 09:32 PM
ALKTGENERAL ATLANTIC GENPAR (BERMUDirectorMay 06 '26Buy16.63844,77214,048,55817,445,994May 06 09:10 PM
ALKTGENERAL ATLANTIC GENPAR (BERMUDirectorMay 05 '26Buy16.84700,00011,788,00016,601,222May 06 09:10 PM
ALKTGENERAL ATLANTIC GENPAR (BERMUDirectorMay 04 '26Buy16.92521,7718,828,36515,901,222May 06 09:10 PM
ALKTGENERAL ATLANTIC, L.P.DirectorMay 06 '26Buy16.63844,77214,048,55817,445,994May 06 09:08 PM
ALKTGENERAL ATLANTIC, L.P.DirectorMay 05 '26Buy16.84700,00011,788,00016,601,222May 06 09:08 PM
ALKTGENERAL ATLANTIC, L.P.DirectorMay 04 '26Buy16.92521,7718,828,36515,901,222May 06 09:08 PM
AMGCates G. StaleyDirectorMay 06 '26Buy305.831,500458,7456,405May 06 07:27 PM
COAGRA CAPITAL MANAGEMENT, L.P.DirectorMay 06 '26Buy24.6068,0181,673,3996,314,525May 06 07:16 PM
COAGRA CAPITAL MANAGEMENT, L.P.DirectorMay 05 '26Buy24.6397,4112,399,5466,246,507May 06 07:16 PM
COAGRA CAPITAL MANAGEMENT, L.P.DirectorMay 04 '26Buy18.002,675,00048,150,0006,149,096May 06 07:16 PM
BRK-BO'Sullivan Michael J.See RemarksMay 06 '26Buy467.44536250,545663May 06 07:04 PM
BRK-AO'Sullivan Michael J.See RemarksMay 06 '26Buy467.44536250,545663May 06 07:04 PM
AUBNHOUSEL DAVID EDirectorMay 05 '26Buy23.961503,5949,264May 06 05:44 PM
NSPSARVADI PAUL JChairman of the Board & CEOMay 05 '26Buy28.73100,0002,873,236699,670May 06 05:37 PM
TSQSchatz ScottEVP, Finance Op and TechMay 04 '26Buy6.519436,13968,994May 06 05:33 PM
FFINNickles Robert Clark JrDirectorMay 05 '26Buy31.9666421,22197,624May 06 05:17 PM
BROPROCTOR H PALMER JRDirectorMay 05 '26Buy57.102,000114,20047,621May 06 05:00 PM
ONEWSingleton Philip Austin Jr.Executive ChairmanMay 05 '26Buy10.8821,930238,598801,816May 06 04:54 PM
ONEWSingleton Philip Austin Jr.Executive ChairmanMay 04 '26Buy9.951101,094779,886May 06 04:54 PM
AREMARCUS JOEL SExecutive ChairmanMay 05 '26Buy42.727,500320,416580,224May 06 04:48 PM
CCIStephens Kevin ADirectorMay 05 '26Buy90.2482073,99723,934May 06 04:40 PM
CWBCSILVA DOROTHEA DDirectorMay 05 '26Buy23.571503,53612,310May 06 04:32 PM
CWBCSILVA DOROTHEA DDirectorMay 04 '26Buy23.781535712,160May 06 04:32 PM
FCPTLenehan William HPresident and CEOMay 05 '26Buy25.233,96199,919775,696May 06 04:30 PM
MSBIFranklin TravisDirectorMay 05 '26Buy26.499,400248,9889,400May 06 04:29 PM
WTWClarke LucyPresident of Risk & BrokingMay 06 '26Buy263.371,896499,34022,717May 06 04:22 PM
XZOPatel PareshChief Executive OfficerMay 05 '26Buy17.112,00034,2201,642,013May 06 04:15 PM
SRADKoerl CarstenChief Executive OfficerMay 05 '26Buy13.40158,0002,117,2002,618,272May 06 04:10 PM
SRADKoerl CarstenChief Executive OfficerMay 04 '26Buy13.38182,0002,435,1602,460,272May 06 04:10 PM
WSBKSnow John Ingalls IIIDirectorMay 05 '26Buy12.876,11078,63618,610May 06 01:24 PM
NWFLCarroll Joseph WDirectorMay 05 '26Buy29.4557216,8451,100May 06 01:08 PM
NWFLCarroll Joseph WDirectorMay 05 '26Buy29.451002,94541,694May 06 01:08 PM
ASRVSTOPKO JEFFREY APresident & CEO ASRV & BankMay 05 '26Buy3.853,00011,550169,379May 06 11:47 AM
OVLYLAFFERTY ALLISONDirectorMay 05 '26Buy33.191805,9748,606May 06 10:59 AM
PRPLLucian Robert GerardChief Financial OfficerMay 04 '26Buy0.4960,00029,43660,000May 06 10:57 AM
TPLHORIZON KINETICS ASSET MANAGEM10% OwnerMay 05 '26Buy432.7114333,426,154May 06 10:27 AM
PATKAugsburger BlakeDirectorMay 05 '26Buy85.1940034,0762,125May 06 07:56 AM
PATKNEMETH ANDY LChief Executive OfficerMay 05 '26Buy88.0010,000880,000287,745May 06 07:55 AM
PATKWELCH M SCOTTDirectorMay 05 '26Buy88.2310,050886,670156,000May 06 07:53 AM
PATKFiler Matthew SEVP Finance, CFO & TreasurerMay 05 '26Buy85.501,00085,50021,614May 06 07:52 AM
PATKRoeder Charles RPresident - RVMay 05 '26Buy87.835,750505,01842,147May 06 07:51 AM
VWAVVisionWave Holdings, Inc.DirectorApr 29 '26Buy4.00458,697,6001,834,790,40012,212,683,200May 06 06:16 AM
VWAVVisionWave Holdings, Inc.DirectorApr 28 '26Buy4.001,080,000,0004,320,000,00011,753,985,600May 06 06:16 AM
SVREVisionWave Holdings, Inc.DirectorApr 29 '26Buy4.00458,697,6001,834,790,40012,212,683,200May 06 06:16 AM
SVREVisionWave Holdings, Inc.DirectorApr 28 '26Buy4.001,080,000,0004,320,000,00011,753,985,600May 06 06:16 AM
AVTRDingemans SimonDirectorMay 01 '26Buy8.1425,000203,50025,000May 05 07:44 PM
GTELM Asset Management Inc.10% OwnerMay 05 '26Buy9.3045,000418,4374,122,200May 05 05:51 PM
GTELM Asset Management Inc.10% OwnerMay 01 '26Buy9.1052,000472,9504,077,200May 05 05:51 PM
ULSHancock Lynn HSee RemarksDec 08 '25Buy77.82862320,602May 05 05:51 PM
BUSEPhillips Scott A.Chief Accounting OfficerMay 04 '26Buy25.905,000129,5088,350May 05 05:38 PM
BIPKrant David TylerChief Financial OfficerMay 01 '26Buy48.101,15055,3152,150May 05 05:35 PM
OPCHKRAEMER HARRY M JANSEN JRDirectorMay 04 '26Buy21.4136,610783,773450,000May 05 05:32 PM
MCAHULiu SuyingCEO and CFOMay 01 '26Buy10.0025,000250,0002,982,143May 05 05:30 PM
MCAHUMountain Crest Holdings 6 LLC10% OwnerMay 01 '26Buy10.0025,000250,0002,982,143May 05 05:29 PM
ECLMacLennan DavidDirectorMay 04 '26Buy256.91800205,53024,230May 05 05:27 PM
AWREAmlani Ajay KPresident & CEOMay 04 '26Buy1.1710,95212,814867,894May 05 05:02 PM
AWREAmlani Ajay KPresident & CEOMay 01 '26Buy1.1518,90121,736856,942May 05 05:02 PM
RRBIPrice Teddy RayDirectorMay 05 '26Buy86.5420517,74165,824May 05 04:56 PM
RRBIPrice Teddy RayDirectorMay 05 '26Buy85.651,08092,502376,932May 05 04:56 PM
CLXBreber Pierre RDirectorMay 05 '26Buy85.825,000429,12418,000May 05 04:54 PM
CZWIOlson Timothy LDirectorMay 05 '26Buy20.951,00020,94526,684May 05 04:38 PM
MKLPuckett A. LynneDirectorMay 01 '26Buy1795.5357102,3451,463May 05 04:37 PM
AREMARCUS JOEL SExecutive ChairmanMay 04 '26Buy41.0210,000410,200572,724May 05 04:32 PM
TBBKCohn MatthewDirectorMay 04 '26Buy58.7725014,69259,861May 05 04:16 PM
TBBKCohn MatthewDirectorMay 01 '26Buy59.602,250134,1055,155May 05 04:16 PM
LRobusto DinoDirectorMay 05 '26Buy105.445,000527,2005,235May 05 04:16 PM
XZOPatel PareshChief Executive OfficerMay 04 '26Buy16.562,00033,1291,640,013May 05 04:15 PM
AVLNNovo Holdings A/S10% OwnerMay 01 '26Buy18.00555,5559,999,9903,883,289May 05 04:15 PM
PDCHilmer Michael AnthonyDirectorMay 05 '26Buy8.205004,1004,000May 05 04:10 PM
PDCHilmer Michael AnthonyDirectorMay 04 '26Buy8.123,50028,4053,500May 05 04:10 PM
FGBIREYNOLDS MARSHALL TDirectorApr 30 '26Buy9.17109,051999,998117,551May 05 04:08 PM
TENBBrown Matthew CharlesChief Financial OfficerMay 04 '26Buy21.5412,000258,48030,541May 05 04:03 PM
WTWHess Carl AaronChief Executive OfficerMay 04 '26Buy255.082,000510,160117,425May 05 04:02 PM
RGCOOliver Lawrence T.Senior VP and SecretaryMay 01 '26Buy24.40820030,033May 05 03:08 PM
RGCOMiles Christen BrookeVP, Human ResourcesMay 01 '26Buy24.4041009,823May 05 03:07 PM
CLMBMCCARTHY JOHN RDirectorMay 04 '26Buy18.834,00075,32085,876May 05 03:01 PM
CATMacLennan DavidDirectorMay 04 '26Buy876.84250219,2108,206May 05 02:00 PM
FUNCSturm Tonya K.EVP & CFOMay 01 '26Buy38.10311211,909May 05 01:02 PM
FUNCBoal Brian R.DirectorMay 01 '26Buy38.10782,99020,917May 05 12:56 PM
FUNCRush Jason BarryPresident & CEOMay 01 '26Buy38.10762,89927,167May 05 12:53 PM
FUNCRodeheaver Carissa LynnDirectorMay 01 '26Buy37.991676,35247,900May 05 12:48 PM
ORIRisch TheraceDirectorMay 01 '26Buy39.9030011,97012,843May 05 12:47 PM
MPBDe Soto Matthew GDirectorMay 04 '26Buy32.751,52549,948118,696May 05 12:44 PM
GRFTyler Donald GDirectorApr 16 '26Buy9.901,0009,9008,059May 05 11:44 AM
TPLHORIZON KINETICS ASSET MANAGEM10% OwnerMay 04 '26Buy438.6914393,426,153May 05 11:17 AM
SGRPHennen Steven MichaelChief Financial OfficerMay 01 '26Buy0.6478,00049,920133,000May 05 10:20 AM
WSBKBoodakian Stephen HarryDirectorMay 01 '26Buy12.932,50032,3252,500May 05 09:37 AM
ASICSchenk ChrisSee RemarksMay 04 '26Buy19.992,50049,9752,500May 05 08:56 AM
CZWIFELBER FRANCIS EDirectorMay 04 '26Buy20.601,00020,60020,950May 05 08:36 AM
RVSBCox Daniel DEVP/COOMay 04 '26Buy5.221,0005,22070,008May 05 08:00 AM
NMMFrangou AngelikiSee RemarksMay 04 '26Buy71.741,16983,8634,713,664May 04 09:10 PM
NMMFrangou AngelikiSee RemarksMay 01 '26Buy71.081,15582,1014,712,495May 04 09:10 PM
NMMFrangou AngelikiSee RemarksApr 30 '26Buy72.031,17684,7034,711,340May 04 09:10 PM
PSUSHerring BruceTrusteeApr 30 '26Buy43.4110,000434,14010,000May 04 09:08 PM
PSACKMAN WILLIAM ACEO & ChairmanApr 30 '26Buy23.77800,00019,015,8011,500,000May 04 08:39 PM
HAYWCanning Susan M.SVP, CLO, Corporate SecretaryApr 30 '26Buy12.762,24228,606103,837May 04 06:30 PM
FNDLANGLEY BRYANEVP & CHIEF FINANCIAL OFFICERMay 04 '26Buy48.692,500121,72542,016May 04 06:28 PM
BACBANK OF AMERICA CORP /DE/10% OwnerApr 30 '26Buy12.334075,018407May 04 06:03 PM
SPTXARCH Venture Partners XII, LLC10% OwnerMay 04 '26Buy18.001,100,00019,800,0006,294,951May 04 06:02 PM
FNDPAULSEN BRADLEYChief Executive OfficerMay 04 '26Buy50.255,000251,25085,010May 04 05:43 PM
OPCHSethna MeenalChief Financial OfficerMay 04 '26Buy20.1616,225327,07598,337May 04 05:42 PM
OPCHRADEMACHER JOHN CHARLESChief Executive OfficerMay 04 '26Buy21.1812,500264,706695,152May 04 05:41 PM
TMUSAlmeida AndreChief Broadband, Ent. & EmergMay 01 '26Buy196.185,0971,000,01644,850May 04 05:36 PM
KFSHansen Kent ACFO & EVPApr 30 '26Buy10.931431,563135,103May 04 05:20 PM
open in screener